South Bend, IN

4:22 AM EST on February 18, 2018 (GMT -0500)
South Bend Regional

Weather History for KSBN - October, 2011

Change the Weather History Date:

Thursday, October 20, 2011

  Actual Average Record
Temperature  
Mean Temperature 45 °F 51 °F  
Max Temperature 47 °F 60 °F 84 °F (1953)
Min Temperature 43 °F 41 °F 23 °F (1952)
Degree Days  
Heating Degree Days 20 14  
Month to date heating degree days 176 228  
Since 1 July heating degree days 333 362  
Cooling Degree Days 0 0  
Month to date cooling degree days 11 8  
Year to date cooling degree days 969 772  
Moisture  
Dew Point 43 °F    
Average Humidity 91    
Maximum Humidity 100    
Minimum Humidity 82    
Precipitation  
Precipitation 1.09 in 0.10 in 1.33 in (1898)
Month to date precipitation 3.94 2.17  
Year to date precipitation 39.77 30.97  
Snow  
Snow 0.00 in 0.00 in 1.40 in (1989)
Month to date snowfall 0.0 0.1  
Since 1 July snowfall 0.0 0.1  
Since 1 September snowfall 0.1  
Snow Depth 0.00 in    
Sea Level Pressure  
Sea Level Pressure 29.52 in    
Wind  
Wind Speed 19 mph (NW)    
Max Wind Speed 33 mph    
Max Gust Speed 43 mph    
Visibility 7 miles    
Events Rain    
T = Trace of Precipitation, MM = Missing Value Source: NWS Daily Summary

Daily Weather History Graph

Daily Weather History Graph

Search for Another Location

Airport or City:

Trip Planner

Search our weather history database for the weather conditions in past years. The results will help you decide how hot, cold, wet, or windy it might be!

Date:

Astronomy

Oct. 20, 2011 Rise Set
Actual Time 8:02 AM EDT 6:56 PM EDT
Civil Twilight 7:34 AM EDT 7:24 PM EDT
Nautical Twilight 7:02 AM EDT 7:57 PM EDT
Astronomical Twilight 6:30 AM EDT 8:29 PM EDT
Moon 12:41 AM EDT (10/20) 3:10 PM EDT (10/20)
Length of Visible Light 11h 50m
Length of Day
10h 53m
Last Quarter, 44% of the Moon is Illuminated
Oct 20
Last Quarter
Oct 26
New
Nov 2
First Quarter
Nov 10
Full
Nov 18
Last Quarter

Hourly Weather History & Observations

Time (EDT) Temp. Windchill Dew Point Humidity Pressure Visibility Wind Dir Wind Speed Gust Speed Precip Events Conditions
12:36 AM 42.8 °F 32.7 °F 42.8 °F 100% 29.37 in 10.0 mi North 27.6 mph 35.7 mph 0.04 in Rain Rain
12:50 AM 42.8 °F 33.5 °F 42.8 °F 100% 29.37 in 9.0 mi North 23.0 mph 33.4 mph 0.06 in Rain Rain
12:54 AM 43.0 °F 33.1 °F 42.1 °F 97% 29.38 in 9.0 mi North 26.5 mph 35.7 mph 0.07 in Rain Rain
1:28 AM 42.8 °F 33.5 °F 42.8 °F 100% 29.36 in 9.0 mi NNW 23.0 mph 33.4 mph 0.06 in Rain Rain
1:54 AM 43.5 °F 34.5 °F 42.4 °F 96% 29.37 in 8.0 mi NNW 23.0 mph 34.5 mph 0.10 in Rain Rain
2:54 AM 43.9 °F 35.2 °F 43.3 °F 98% 29.35 in 9.0 mi NNW 21.9 mph 33.4 mph 0.05 in Rain Rain
3:54 AM 44.4 °F 35.9 °F 44.1 °F 99% 29.34 in 6.0 mi NNW 21.9 mph 34.5 mph 0.12 in Rain Rain
4:54 AM 44.4 °F 35.3 °F 44.1 °F 99% 29.35 in 9.0 mi NNW 25.3 mph 35.7 mph 0.09 in Rain Light Rain
5:54 AM 44.4 °F 35.5 °F 43.9 °F 98% 29.35 in 8.0 mi NNW 24.2 mph 31.1 mph 0.07 in Rain Rain
6:54 AM 44.2 °F 35.7 °F 43.3 °F 97% 29.35 in 10.0 mi NNW 21.9 mph 33.4 mph 0.03 in Rain Light Rain
7:54 AM 44.2 °F 35.2 °F 43.7 °F 98% 29.37 in 10.0 mi NNW 24.2 mph 31.1 mph 0.03 in Rain Light Rain
8:54 AM 45.0 °F 36.6 °F 44.4 °F 98% 29.39 in 3.0 mi NNW 21.9 mph 31.1 mph 0.02 in   Overcast
9:54 AM 45.3 °F 37.6 °F 44.4 °F 97% 29.41 in 7.0 mi NW 19.6 mph 29.9 mph 0.01 in Rain Light Rain
10:34 AM 46.4 °F 39.8 °F 46.4 °F 100% 29.42 in 7.0 mi NNW 16.1 mph 27.6 mph 0.01 in Rain Light Rain
10:54 AM 46.0 °F 38.3 °F 42.1 °F 86% 29.44 in 6.0 mi NNW 20.7 mph 28.8 mph 0.01 in Rain Light Rain
11:02 AM 46.4 °F 39.5 °F 42.8 °F 87% 29.43 in 5.0 mi NNW 17.3 mph 25.3 mph 0.01 in Rain Light Rain
11:54 AM 46.0 °F 39.6 °F 43.0 °F 89% 29.47 in 3.0 mi NNW 15.0 mph 26.5 mph 0.02 in Rain Rain
12:54 PM 46.9 °F - 43.0 °F 86% 29.49 in 7.0 mi NW 19.6 mph 29.9 mph 0.05 in Rain Light Rain
1:09 PM 46.4 °F 39.0 °F 42.8 °F 87% 29.48 in 7.0 mi NW 19.6 mph 29.9 mph 0.00 in Rain Rain
1:18 PM 46.4 °F 38.3 °F 42.8 °F 87% 29.48 in 6.0 mi NW 23.0 mph 33.4 mph 0.01 in Rain Light Rain
1:54 PM 46.9 °F - 43.0 °F 86% 29.50 in 7.0 mi NW 19.6 mph 31.1 mph 0.03 in Rain Light Rain
2:54 PM 46.9 °F - 42.1 °F 83% 29.54 in 5.0 mi NW 24.2 mph 33.4 mph 0.04 in Rain Light Rain
3:30 PM 46.4 °F 38.5 °F 42.8 °F 87% 29.55 in 5.0 mi NW 21.9 mph 39.1 mph N/A Rain Light Rain
3:54 PM 46.0 °F 38.3 °F 41.0 °F 83% 29.58 in 5.0 mi NW 20.7 mph 39.1 mph 0.08 in Rain Rain
4:54 PM 45.0 °F 37.9 °F 41.0 °F 86% 29.62 in 6.0 mi WNW 16.1 mph 29.9 mph 0.08 in Rain Rain
5:54 PM 44.1 °F 36.2 °F 41.0 °F 89% 29.67 in 6.0 mi WNW 18.4 mph 33.4 mph 0.06 in Rain Rain
6:54 PM 44.1 °F 35.7 °F 39.9 °F 85% 29.72 in 6.0 mi WNW 20.7 mph 25.3 mph 0.04 in Rain Light Rain
7:54 PM 44.1 °F 37.1 °F 41.0 °F 89% 29.75 in 7.0 mi WNW 15.0 mph 25.3 mph 0.05 in Rain Light Rain
8:05 PM 44.6 °F 37.8 °F 41.0 °F 87% 29.74 in 6.0 mi WNW 15.0 mph 26.5 mph 0.01 in Rain Light Rain
8:54 PM 44.6 °F 38.8 °F 41.0 °F 87% 29.77 in 6.0 mi WNW 11.5 mph - N/A Rain Light Rain
9:47 PM 44.6 °F 38.4 °F 41.0 °F 87% 29.79 in 5.0 mi WNW 12.7 mph - 0.03 in Rain Light Rain
9:54 PM 44.1 °F 37.4 °F 41.0 °F 89% 29.80 in 6.0 mi NW 13.8 mph 19.6 mph 0.03 in Rain Light Rain
10:54 PM 44.1 °F 37.4 °F 41.0 °F 89% 29.83 in 8.0 mi WNW 13.8 mph 19.6 mph 0.04 in   Overcast
11:54 PM 44.1 °F 39.5 °F 42.1 °F 93% 29.85 in 6.0 mi West 8.1 mph - 0.00 in Rain Light Rain